ONEWEB-0248 (48798 NORAD) Tracking and Keplerian Element Data

This shows tracking and keplerian element data for the satellite.

Feedback or suggestion? Click here.




ElementValue
Catalog48798
NameONEWEB-0248
Epoch Orbit354
Epoch Day214.91667824
Epoch Year2021
RAAN254.7159
Inclination87.6386
Eccentricity0.001085
Argument of Perigee47.4118
Mean Anonmoly304.5946
Mean Motion14.42407122
Decay Rate-0.01414264
L11 48798U 21045AH 21214.91667824 -.01414264 00000-0 -45823+0 0 9996
L22 48798 87.6386 254.7159 0010850 47.4118 304.5946 14.42407122 3548

Live tracking and technical data element details for ONEWEB-0248 (NORAD 48798). ONEWEB-0248 can be tracked NOW for your location showing map with azimuth and elevation plus other details from your city location.

Track the satellite on the map from your city or location and see movement details for azimuth, elevation, latitude, longitude, range, height, and movement on the map or in text.







IsCatalogInMostPopularTable: catalog: 48798, numindb: 23
Update: records affected: 1



GetName: 48798 ONEWEB-0248

Hit Count: updated at: Wed, 04 Aug 2021 00:33:17 GMT